Flag for China Weather past 2 weeks in Changsha, Hunan, China

Now
72 °F

Light rain. Fog.


Feels Like: 69 °F
Forecast: 69 / 80 °F
Wind: 8 mph from Northwest

Location: Changsha

Current Time: Jul 6, 2015 at 1:49:01 AM

Latest Report: Jul 6, 2015 at 1:00 AM


Visibility: 2 mi

Pressure: 29.74 "Hg

Humidity: 88%

Dew point: 68 °F

Location of ChangshaLocation

Historic Weather in Changsha — Graph

°F

Changsha temperature yesterday

Maximum temperature yesterday: 75 °F (at 11:00 AM)
Minimum temperature yesterday: 68 °F (at 1:00 AM)
Average temperature yesterday: 72 °F

Past Weeks' High & Low Weather Summary

 TemperatureHumidityPressure
High99 °F (Jun 27, 2:00 PM)94% (Jun 21, 2:00 AM)29.77 "Hg (Jun 21, 2:00 AM)
Low68 °F (Jul 4, 4:00 PM)42% (Jun 27, 2:00 PM)29.47 "Hg (Jun 26, 5:00 PM)
Average82 °F74%29.61 "Hg
* Reported Midnight between Jun 20 and Jun 21 — Midnight between Jul 5 and Jul 6, Changsha, Weather by CustomWeather, © 2015

Note: Actual official high and low records may vary slightly from our data, if they occured in-between our weather recording intervals... More about our weather records

Advertising

Changsha weather history for previous 24 hours

 ConditionsComfort  
Time TempWeatherWind HumidityBarometerVisibility
12:00 AM
Mon, Jul 6
73 °FLight rain. Fog.6 mph78%29.74 "Hg3 mi
11:00 PM
Sun, Jul 5
73 °FFog.6 mph78%29.74 "Hg3 mi
10:00 PM73 °FFog.3 mph83%29.74 "Hg3 mi
9:00 PM73 °FFog.No wind83%29.74 "Hg3 mi
8:00 PM73 °FOvercast.1 mph78%29.74 "Hg4 mi
7:00 PM73 °FMore clouds than sun.8 mph78%29.71 "Hg4 mi
6:00 PM75 °FFog.1 mph83%29.71 "Hg2 mi
5:00 PM75 °FFog.1 mph83%29.71 "Hg2 mi
4:00 PM75 °FFog.1 mph78%29.71 "Hg2 mi
3:00 PM75 °FLight rain. Fog.1 mph78%29.74 "Hg3 mi
2:00 PM73 °FFog.1 mph83%29.74 "Hg2 mi
1:00 PM73 °FLight rain. Fog.3 mph83%29.77 "Hg3 mi
12:00 PM75 °FMore clouds than sun.1 mph74%29.77 "Hg4 mi
11:00 AM75 °FMore clouds than sun.1 mph74%29.77 "Hg4 mi
10:00 AM73 °FFog.3 mph78%29.77 "Hg3 mi
9:00 AM72 °FFog.1 mph83%29.77 "Hg2 mi
8:00 AM72 °FFog.1 mph83%29.77 "Hg2 mi
7:00 AM70 °FFog.1 mph88%29.77 "Hg3 mi
6:00 AM70 °FFog.No wind88%29.74 "Hg3 mi
5:00 AM70 °FLight rain. Mostly cloudy.1 mph88%29.74 "Hg4 mi
4:00 AM70 °FFog.1 mph88%29.74 "Hg3 mi
3:00 AM70 °FFog.1 mph88%29.74 "Hg2 mi
2:00 AM70 °FPassing clouds.1 mph88%29.74 "Hg4 mi
1:00 AM68 °FPassing clouds.3 mph94%29.77 "Hg4 mi
Weather by CustomWeather, © 2015

See weather overviewHow to use our weather pages